Location: Be?i?
(36.9044°N, 30.1006°E)
Time: 11:03:12
(UTC+00:00)

IKONOS-2 - Pass Details

Date: 05 August 2024
Orbit: 584 x 594 km, 98.2° (Epoch: 10 September)

Event Time Altitude Azimuth Distance (km) Brightness Sun altitude
Rises 17:44:46 0° 13° (NNE) 2,846 8.2 -8.6°
Reaches altitude 10° 17:46:56 10° 14° (NNE) 1,938 7.3 -8.9°
Maximum altitude 17:51:09 83° 103° (ESE) 605 4.4 -9.7°
Drops below altitude 10° 17:55:19 10° 191° (S) 1,919 6.9 -10.4°
Sets 17:57:28 0° 192° (SSW) 2,814 7.7 -10.8°
